Temperature
26 26 26 27 28 29 29 30 30 31 33 32 32 32 32 33 33 32 32 32 32 31 30 29 27 24 22 21 21 20 20 19 18 18 18 18 17 17 16 16 16 16 16 15
26 26 28 29 30 30 29 29 29 31 32 32 31 31 32 32 32 32 32 31 31 31 30 28 26 24 22 20 20 19 19 18 18 17 17 17 17 16 16 16 16 16 15 15
26 28 29 29 29 29 29 29 29 30 31 31 31 30 31 31 31 32 32 31 31 31 29 27 26 23 21 20 19 19 18 18 17 17 16 16 16 16 16 16 16 15 15 14
27 29 30 29 29 29 28 29 29 29 29 29 30 28 30 31 31 31 32 31 31 30 29 27 24 22 20 19 19 18 18 17 17 16 16 16 16 15 15 14 14 14 13 13
28 29 29 29 29 29 29 30 29 29 28 28 28 28 29 31 31 31 32 32 31 30 29 26 23 20 19 18 18 18 17 17 16 16 15 15 14 14 13 13 13 13 12 12
28 30 30 30 30 30 29 29 29 28 28 26 27 27 28 30 31 31 32 32 31 29 27 24 21 19 18 17 17 17 17 16 15 15 14 14 13 13 12 12 12 11 11 10
27 28 30 30 29 29 29 27 26 25 25 26 28 28 28 30 32 32 32 30 29 26 24 21 18 17 17 16 16 16 16 15 14 14 13 13 12 12 12 11 11 11 10 9
26 27 29 30 29 28 28 27 25 24 25 27 29 28 29 31 32 31 31 29 27 24 21 19 17 16 16 16 16 15 15 14 13 13 12 12 12 11 11 11 10 10 10 9
27 28 30 30 30 29 27 28 28 27 26 26 27 28 30 31 31 31 30 29 27 24 20 17 16 15 15 15 15 14 13 13 12 12 11 11 11 10 10 10 9 9 9 8
27 26 28 30 30 29 29 28 27 26 24 24 26 27 28 28 29 29 29 29 25 21 18 16 15 14 14 14 13 12 12 11 11 11 10 10 10 10 9 8 8 8 7 7
26 25 26 28 28 28 28 27 27 27 26 25 24 26 27 27 28 28 28 27 23 19 17 15 14 13 13 12 11 11 10 10 10 9 9 9 8 8 8 7 7 7 6 6
25 25 24 26 28 29 28 28 27 25 25 25 25 26 28 27 26 24 24 24 21 18 16 14 13 12 11 11 10 10 9 9 8 8 8 8 7 7 7 7 7 6 6 6
22 23 22 23 25 27 27 27 27 27 26 25 24 25 25 25 24 22 20 18 17 16 15 13 12 11 10 9 9 8 8 8 8 8 7 7 7 7 7 6 6 6 6 6
21 21 22 22 24 24 24 25 26 26 25 24 25 25 24 24 23 21 19 17 16 15 14 12 11 9 9 8 8 8 8 8 8 7 7 7 6 6 6 6 6 6 6 6
21 21 22 23 24 24 24 24 24 23 24 23 24 24 21 22 22 20 18 17 16 14 13 11 10 9 8 8 8 8 7 7 7 7 6 6 6 6 6 6 6 5 5 5
21 20 20 21 23 23 23 24 24 24 24 24 24 23 20 19 18 17 16 16 15 14 12 10 9 8 8 7 7 7 7 6 6 6 6 6 6 6 6 5 5 5 4 4
20 19 19 19 21 22 21 23 23 24 24 23 21 19 19 18 16 14 15 14 14 12 10 9 8 7 7 7 6 6 6 5 5 5 5 5 5 5 5 5 4 4 3 3
18 18 18 18 19 18 21 23 22 21 20 20 20 19 18 16 12 11 11 11 11 9 8 7 7 6 6 6 5 5 5 5 5 5 5 5 5 5 4 4 3 3 3 2
19 17 17 17 17 19 21 20 20 20 18 17 17 17 17 16 13 9 8 8 8 7 7 6 6 5 5 5 4 4 4 4 4 5 5 5 4 4 4 3 3 2 2 1
19 18 17 16 16 17 17 18 19 19 17 15 16 16 16 16 15 9 7 7 6 6 6 5 5 4 4 4 4 4 4 4 4 4 4 4 4 3 3 2 2 1 1 1
16 16 16 16 16 17 16 18 18 16 14 15 14 14 13 12 10 7 6 6 5 5 4 4 4 4 4 4 4 4 4 4 4 4 4 3 3 3 2 2 1 1 0 0
16 16 15 15 15 15 16 17 15 14 14 14 13 12 10 8 6 6 5 5 4 4 4 4 4 4 4 4 4 4 4 4 4 3 3 3 3 2 2 1 1 0 0 0
16 16 15 14 14 15 15 15 14 14 13 13 12 10 8 6 5 5 4 4 4 3 4 4 4 4 4 4 4 4 4 4 4 3 3 3 2 2 1 1 1 0 0 -0
15 16 16 15 16 15 14 14 13 12 12 11 10 9 7 6 5 4 4 4 4 4 4 4 4 4 4 4 4 4 4 4 4 3 3 3 2 2 1 1 0 0 -0 -1
14 15 15 15 16 15 13 12 11 10 9 8 8 7 6 5 4 4 4 4 4 4 4 5 5 5 4 4 4 4 4 4 4 4 4 3 2 2 1 1 0 -0 -0 -1
14 14 13 13 12 12 11 10 10 9 8 7 6 5 5 5 4 4 4 5 5 5 5 5 5 5 5 5 4 4 4 4 4 4 3 3 2 2 1 1 0 -0 -0 -1
Wind_Speed
16 16 18 19 22 21 22 23 21 19 21 23 22 20 17 17 13 14 15 14 14 12 10 12 16 16 12 12 13 12 12 12 10 9 8 8 8 7 7 6 9 9 9 8
17 21 21 20 20 21 22 23 22 18 16 15 14 16 15 16 17 14 16 15 13 11 6 11 18 20 18 15 14 12 11 12 10 8 6 7 8 8 8 7 7 10 9 7
23 19 21 22 20 19 19 18 18 18 18 19 18 18 17 17 21 23 20 18 18 13 7 9 16 19 19 16 14 12 10 11 9 9 8 8 8 8 6 7 6 6 9 8
21 22 14 12 17 17 15 15 16 18 17 17 19 19 18 19 23 25 24 23 20 16 11 9 14 16 15 13 11 10 9 9 9 9 10 11 8 8 7 6 5 5 6 6
19 20 19 16 15 14 14 14 15 16 16 18 19 20 20 19 20 18 18 21 19 15 11 12 15 15 14 12 11 11 11 10 8 8 9 8 8 7 6 7 6 6 5 4
21 19 16 17 15 14 13 13 14 14 14 19 20 21 22 19 21 18 15 12 9 9 9 15 17 16 14 13 13 12 12 10 8 8 7 8 9 9 9 7 6 4 6 5
23 23 19 14 14 14 14 12 11 13 15 19 21 21 19 18 18 14 7 1 4 9 16 18 18 16 14 14 13 12 13 11 9 8 8 8 8 8 7 6 5 2 4 6
21 20 23 19 16 14 16 16 14 14 15 15 13 10 8 8 7 5 2 3 7 13 17 18 16 15 14 13 13 12 12 11 9 9 8 7 7 5 5 3 3 3 5 8
18 18 19 23 20 18 17 16 17 17 19 18 17 19 18 11 9 8 7 6 6 13 18 19 17 15 14 13 12 12 12 11 10 9 8 7 5 6 7 5 3 5 4 4
13 13 14 11 16 19 19 16 12 14 15 16 17 17 12 11 10 5 4 3 8 17 19 18 16 14 13 12 11 11 11 10 9 8 6 7 7 7 5 4 6 6 4 4
7 10 16 12 12 15 15 17 15 15 14 16 15 10 4 5 7 7 6 4 14 21 20 18 15 15 15 14 12 11 10 9 7 6 6 7 5 5 4 4 5 4 3 2
9 9 14 17 16 16 17 17 16 13 15 16 16 13 6 9 14 17 18 10 15 20 19 18 17 16 15 14 12 10 8 7 7 6 6 5 4 3 2 4 4 3 1 2
10 5 10 15 15 16 14 14 15 14 12 13 14 9 9 12 14 16 16 15 10 16 18 18 16 15 14 13 11 9 7 6 6 7 6 4 3 3 3 4 3 1 1 3
5 6 11 15 10 8 10 12 13 15 14 13 13 10 7 8 9 8 8 10 9 12 15 16 15 14 13 12 10 8 7 6 6 6 6 5 4 3 3 2 2 2 3 4
5 10 14 18 20 17 15 13 11 12 13 14 14 10 10 8 9 8 8 9 11 13 15 16 15 15 14 12 10 10 9 8 7 6 6 4 2 1 2 3 3 4 5 7
6 8 13 17 18 18 19 18 18 17 17 18 17 7 12 14 17 16 11 8 9 11 14 15 16 16 15 13 13 12 11 9 8 7 5 2 1 3 4 4 5 6 7 7
4 6 10 14 17 17 20 19 19 17 12 10 8 10 14 15 18 17 12 9 9 11 14 15 15 14 14 13 13 12 9 7 5 3 2 2 3 4 5 6 7 7 6 7
7 8 8 12 13 16 13 6 4 4 8 11 10 11 12 13 17 18 16 13 13 15 15 15 15 15 13 12 11 9 5 2 1 1 1 3 4 4 5 6 7 6 6 6
9 8 9 11 14 15 7 6 5 4 6 13 11 10 10 6 10 15 16 15 14 15 15 14 14 13 12 10 7 5 2 1 2 3 4 5 5 5 7 8 7 7 5 5
8 8 9 11 12 10 2 5 5 4 3 11 10 10 10 9 5 5 10 13 14 14 14 14 13 12 9 6 3 2 2 3 4 5 6 6 5 5 7 7 7 6 5 5
8 9 11 13 12 5 5 6 6 4 3 9 9 8 7 6 8 10 12 13 14 14 14 12 11 9 5 3 2 3 4 5 5 6 6 6 5 4 7 6 4 4 5 4
6 5 8 8 10 4 9 6 6 7 7 7 7 7 12 14 14 14 14 14 14 13 12 10 8 6 4 3 4 6 6 5 5 5 5 5 6 7 6 4 3 4 5 5
6 4 3 2 1 3 5 6 7 7 7 7 5 8 15 16 15 15 15 14 12 11 9 7 7 6 5 5 6 6 5 4 4 4 4 5 8 7 6 5 5 5 5 6
5 6 6 5 3 3 5 7 8 8 8 7 9 13 17 17 16 16 14 12 10 9 8 8 8 8 7 7 6 4 4 4 4 3 2 5 7 6 6 5 6 5 7 7
5 5 6 9 8 5 8 9 9 9 11 12 14 15 17 18 17 15 13 11 10 9 8 7 8 8 8 6 5 5 4 4 3 2 3 6 6 6 5 4 4 5 6 5
6 6 6 6 6 5 5 6 7 11 13 15 17 17 16 16 16 14 12 10 9 8 8 8 8 8 8 8 8 8 7 7 6 6 6 6 6 5 4 3 2 2 2 3
Wind_Direction
208 221 226 226 225 238 251 260 261 251 239 242 231 233 240 255 232 225 239 245 246 236 205 172 151 144 140 144 160 165 160 157 159 158 164 150 140 125 109 103 98 94 88 71
215 224 234 239 237 233 242 257 268 276 278 271 257 235 239 257 267 247 234 242 255 256 217 159 147 150 156 169 172 166 159 157 163 158 154 140 130 119 111 103 97 96 90 82
227 231 223 231 245 245 243 250 262 272 279 278 273 258 245 251 264 267 252 237 240 249 227 164 155 157 160 168 164 165 160 159 161 142 127 116 108 114 118 124 116 106 106 93
232 242 244 231 237 243 246 250 259 267 271 271 271 270 256 246 244 246 247 241 233 235 227 190 155 144 145 143 137 132 136 137 131 128 135 141 145 146 140 135 123 115 110 112
234 234 240 239 241 245 249 255 258 259 260 265 267 271 270 267 261 247 249 240 227 226 214 173 147 132 129 125 119 113 111 111 118 125 135 140 132 125 123 119 126 131 117 117
250 248 236 240 235 233 247 256 261 265 266 261 257 259 264 260 263 256 254 240 204 208 169 135 128 122 119 114 111 110 107 104 105 110 118 123 125 129 131 136 148 162 151 150
247 253 248 234 241 228 224 238 247 243 241 250 249 249 258 261 263 266 271 125 113 110 118 121 122 121 119 116 114 114 112 109 108 110 110 115 119 125 134 142 151 182 148 131
236 235 235 231 224 240 227 226 241 258 266 275 285 279 285 304 290 281 295 115 114 118 122 122 123 123 123 122 122 122 120 119 115 109 107 110 123 137 123 85 109 88 63 91
246 250 230 219 214 221 245 237 238 252 265 275 280 290 292 280 247 223 234 228 195 134 127 124 126 125 126 127 127 127 124 119 115 113 110 104 87 83 89 76 60 91 76 116
262 286 290 231 208 212 227 247 256 256 264 273 280 284 301 348 349 307 275 266 125 122 121 120 122 124 122 121 116 111 112 112 110 112 118 111 95 92 109 115 73 72 77 66
276 279 281 273 223 225 226 231 244 263 269 272 274 278 25 0 339 331 301 250 141 133 127 124 124 120 118 117 117 116 113 113 115 113 102 104 107 121 148 129 127 124 122 144
279 277 273 271 272 266 250 248 243 245 253 261 271 282 5 30 21 15 5 31 117 120 121 123 122 121 122 123 123 121 118 116 112 103 95 97 105 110 118 108 102 115 144 270
341 271 259 265 265 271 265 257 260 265 265 260 263 276 50 32 17 22 32 52 74 108 114 117 120 123 125 125 125 123 120 118 120 119 113 115 118 107 76 82 84 59 359 298
324 282 266 264 280 315 305 293 290 279 263 263 270 294 35 25 352 17 62 80 85 102 114 120 123 123 122 120 118 114 103 95 103 111 111 96 73 73 73 74 61 7 341 321
270 269 268 272 280 283 281 280 287 298 301 297 298 324 41 26 8 30 65 98 117 126 126 127 127 124 120 114 105 92 78 62 60 73 86 91 97 109 75 50 31 23 13 4
219 276 285 278 275 280 280 279 279 274 274 282 292 344 50 39 36 39 50 78 109 121 125 124 122 121 117 110 101 89 74 58 48 47 60 63 25 50 51 42 48 39 24 16
302 281 274 272 275 277 268 272 280 282 309 335 359 36 35 41 42 33 34 57 84 105 113 113 111 108 103 98 94 88 78 62 50 42 39 45 37 57 48 42 45 31 19 21
288 297 293 281 277 263 271 307 338 345 32 26 33 34 41 66 67 47 43 62 81 97 102 103 102 101 97 94 91 90 87 88 128 139 77 66 65 66 58 52 41 31 22 19
228 251 267 271 268 265 269 21 1 334 60 33 26 18 14 45 87 57 48 64 79 89 97 100 101 101 97 93 94 100 114 193 167 117 89 67 55 54 52 48 33 31 14 10
212 222 243 255 262 270 63 28 8 316 117 33 20 11 2 349 335 68 66 78 85 91 96 100 101 99 98 99 107 143 157 130 109 94 80 67 56 55 65 55 33 15 360 9
225 229 237 249 256 260 28 327 305 289 49 22 21 22 34 50 77 103 96 91 94 98 100 101 102 102 108 131 143 118 100 89 84 85 80 66 40 63 83 68 38 8 358 356
264 260 258 258 255 249 21 8 30 32 21 19 32 66 94 104 105 106 104 103 104 103 102 102 103 104 110 115 104 89 81 81 84 84 82 78 59 45 60 60 43 24 3 1
274 296 334 350 340 56 47 49 44 23 13 19 50 99 118 117 115 113 111 110 110 113 117 123 124 120 117 114 107 104 111 117 108 93 88 91 92 73 43 34 38 32 20 18
316 321 296 289 170 93 47 45 47 46 50 60 92 112 121 120 120 118 118 120 128 137 142 140 126 111 100 98 102 108 109 101 88 83 98 113 105 92 65 39 39 36 23 19
300 294 291 284 298 337 41 44 56 74 85 90 97 109 119 122 124 127 131 139 145 146 145 138 125 118 117 121 114 101 87 80 86 77 70 94 87 82 75 61 39 36 56 40
321 319 298 300 1 359 13 47 85 102 104 109 112 114 119 123 130 134 137 143 143 141 139 131 125 119 112 99 82 67 56 48 36 47 54 66 70 67 56 53 118 134 95 170
Height
1475 1478 1475 1469 1465 1465 1462 1459 1455 1447 1440 1442 1445 1448 1448 1450 1451 1455 1458 1460 1462 1464 1467 1470 1472 1478 1483 1490 1496 1499 1503 1506 1510 1514 1517 1519 1522 1524 1526 1528 1530 1531 1533 1535
1470 1471 1463 1458 1455 1456 1459 1461 1457 1447 1438 1440 1442 1445 1446 1448 1449 1451 1454 1456 1459 1461 1463 1465 1468 1473 1479 1486 1492 1496 1500 1503 1508 1511 1514 1516 1518 1520 1522 1524 1526 1528 1529 1532
1464 1455 1451 1454 1454 1454 1454 1457 1456 1453 1445 1441 1446 1450 1447 1447 1449 1448 1448 1450 1454 1457 1460 1462 1465 1469 1474 1482 1487 1492 1496 1500 1505 1508 1510 1512 1513 1514 1518 1520 1520 1522 1524 1527
1454 1448 1445 1447 1450 1450 1455 1450 1452 1454 1457 1457 1452 1462 1446 1441 1440 1440 1441 1443 1446 1451 1456 1460 1463 1467 1472 1478 1484 1488 1493 1497 1501 1503 1505 1508 1509 1512 1513 1516 1517 1519 1520 1523
1448 1443 1444 1447 1447 1446 1449 1446 1448 1450 1455 1460 1456 1462 1450 1437 1435 1431 1431 1432 1437 1444 1450 1455 1460 1465 1470 1476 1481 1486 1490 1495 1498 1501 1503 1505 1507 1509 1511 1513 1515 1516 1518 1520
1441 1435 1436 1438 1439 1442 1445 1448 1450 1452 1456 1469 1458 1460 1452 1436 1429 1425 1425 1426 1432 1440 1445 1451 1457 1463 1469 1474 1479 1483 1488 1492 1496 1499 1501 1503 1505 1507 1509 1511 1514 1515 1516 1518
1446 1437 1431 1433 1439 1439 1444 1458 1471 1473 1471 1465 1444 1447 1440 1423 1419 1420 1422 1427 1433 1438 1443 1451 1457 1462 1467 1472 1478 1482 1486 1491 1494 1498 1500 1502 1505 1506 1508 1510 1512 1515 1516 1516
1446 1444 1431 1429 1436 1442 1442 1452 1471 1478 1469 1451 1434 1439 1428 1418 1417 1419 1423 1428 1434 1440 1445 1452 1458 1463 1468 1473 1478 1482 1486 1490 1493 1496 1499 1502 1504 1506 1508 1509 1511 1513 1515 1514
1437 1433 1416 1419 1425 1434 1442 1443 1442 1454 1456 1460 1449 1435 1422 1415 1417 1420 1424 1428 1434 1439 1445 1451 1458 1464 1469 1474 1479 1482 1485 1489 1492 1496 1499 1502 1504 1505 1507 1509 1510 1511 1513 1514
1431 1437 1423 1415 1420 1426 1433 1436 1443 1452 1465 1468 1455 1444 1435 1426 1423 1420 1424 1428 1433 1439 1446 1453 1459 1465 1470 1475 1479 1482 1486 1489 1493 1496 1499 1501 1503 1505 1507 1509 1509 1510 1511 1512
1434 1443 1435 1424 1426 1431 1431 1436 1441 1443 1445 1458 1461 1448 1428 1430 1428 1428 1429 1429 1432 1437 1444 1452 1461 1466 1471 1475 1480 1483 1487 1491 1494 1497 1500 1502 1504 1506 1508 1509 1510 1511 1512 1512
1437 1441 1444 1433 1422 1419 1423 1428 1433 1449 1451 1447 1453 1448 1427 1428 1432 1436 1437 1434 1435 1441 1448 1456 1463 1468 1472 1477 1481 1485 1489 1493 1496 1499 1502 1504 1506 1508 1509 1510 1511 1511 1512 1512
1447 1448 1458 1452 1440 1428 1426 1425 1427 1431 1438 1445 1452 1449 1432 1434 1439 1443 1446 1449 1452 1448 1454 1461 1467 1471 1475 1479 1484 1488 1492 1495 1499 1501 1503 1505 1507 1509 1510 1510 1511 1511 1511 1511
1455 1455 1458 1459 1446 1441 1439 1435 1431 1433 1440 1443 1442 1439 1437 1441 1444 1447 1450 1453 1459 1457 1461 1466 1471 1474 1477 1481 1486 1491 1494 1498 1500 1503 1505 1507 1508 1509 1510 1511 1511 1510 1510 1510
1457 1459 1455 1449 1442 1439 1440 1440 1440 1443 1442 1445 1441 1441 1447 1447 1449 1450 1452 1455 1459 1463 1467 1470 1472 1474 1478 1482 1487 1491 1495 1497 1500 1503 1505 1507 1509 1510 1511 1511 1510 1509 1509 1508
1456 1461 1459 1455 1446 1442 1441 1439 1438 1439 1440 1439 1438 1445 1454 1455 1455 1457 1459 1460 1464 1467 1470 1472 1473 1475 1479 1483 1487 1490 1493 1497 1500 1503 1506 1508 1510 1510 1510 1510 1509 1508 1507 1505
1458 1462 1465 1463 1451 1447 1450 1441 1439 1437 1436 1441 1449 1457 1457 1461 1465 1467 1466 1466 1467 1469 1472 1474 1476 1478 1481 1484 1488 1490 1494 1497 1501 1504 1506 1508 1509 1509 1509 1509 1507 1506 1504 1503
1465 1468 1467 1465 1461 1468 1450 1438 1441 1444 1449 1450 1453 1459 1462 1468 1472 1474 1473 1473 1473 1474 1475 1477 1479 1481 1484 1487 1490 1493 1496 1500 1502 1505 1506 1507 1508 1508 1508 1507 1505 1504 1503 1501
1462 1468 1470 1469 1466 1457 1447 1448 1447 1450 1458 1462 1462 1464 1466 1468 1471 1478 1480 1479 1478 1478 1479 1481 1483 1486 1488 1491 1494 1497 1499 1502 1504 1505 1506 1507 1507 1508 1507 1505 1504 1503 1501 1500
1460 1465 1470 1468 1470 1469 1463 1457 1455 1458 1464 1471 1470 1470 1470 1469 1470 1484 1485 1483 1483 1483 1484 1485 1488 1491 1493 1496 1498 1500 1502 1504 1506 1506 1507 1507 1508 1507 1506 1504 1503 1502 1501 1499
1466 1465 1467 1468 1470 1461 1467 1460 1459 1467 1477 1474 1473 1474 1474 1477 1481 1486 1486 1487 1487 1488 1490 1491 1493 1495 1498 1500 1502 1503 1505 1506 1507 1508 1508 1508 1508 1507 1505 1504 1502 1502 1500 1499
1464 1466 1467 1467 1471 1474 1469 1464 1469 1476 1475 1475 1475 1477 1478 1481 1485 1487 1488 1490 1491 1493 1495 1496 1498 1500 1502 1504 1505 1506 1507 1508 1509 1509 1509 1508 1508 1507 1506 1504 1503 1502 1500 1499
1463 1463 1468 1473 1476 1472 1471 1472 1474 1475 1475 1476 1477 1478 1480 1483 1487 1489 1492 1494 1496 1498 1499 1501 1503 1505 1506 1507 1508 1509 1509 1510 1510 1510 1510 1509 1508 1507 1506 1505 1504 1502 1500 1498
1467 1466 1466 1467 1467 1471 1472 1473 1474 1476 1477 1477 1478 1479 1481 1484 1488 1492 1495 1498 1500 1502 1504 1506 1507 1509 1510 1510 1511 1511 1512 1512 1512 1511 1511 1510 1509 1508 1506 1506 1504 1503 1501 1499
1471 1470 1468 1468 1467 1469 1473 1475 1477 1477 1478 1479 1481 1482 1484 1487 1491 1495 1498 1501 1504 1506 1508 1509 1511 1512 1513 1513 1514 1514 1514 1513 1513 1512 1512 1511 1509 1508 1507 1506 1505 1503 1501 1499
1471 1471 1472 1472 1474 1476 1477 1477 1478 1479 1480 1482 1483 1487 1490 1492 1495 1499 1502 1505 1507 1509 1511 1512 1514 1515 1516 1516 1516 1516 1515 1514 1514 1513 1513 1512 1511 1510 1508 1507 1505 1503 1502 1499